When you browse on this site, cookies collect data to enhance your experience and personalize the content and advertising you see.
Visit our Privacy Policy to learn more. By continuing to use the site, you agree to this use of cookies and data.
  • In Austria
  • List of Countries
  • For 7 days
  • Water Temperature
  • Satellite Maps
  • Weather Map
  • News
  • Weather Widgets
  • user-avatar
    Login

    Hourly Weather Kapan

    Today, 21 April, Sunday

    Time Temperature Precipitation Wind Pressure Humidity
    00:00 +2°C° 0 mm 1 mps 682 mmHg 90%
    01:00 +2°C° 0.1 mm 1 mps 682 mmHg 89%
    02:00 +2°C° 0.1 mm 1 mps 682 mmHg 89%
    03:00 +3°C° 0 mm 1 mps 681 mmHg 90%
    04:00 +3°C° 0.1 mm 1 mps 682 mmHg 89%
    05:00 +3°C° 0.1 mm 1 mps 682 mmHg 88%
    06:00 +4°C° 0.1 mm 1 mps 682 mmHg 88%
    07:00 +4°C° 0.1 mm 2 mps 682 mmHg 82%
    08:00 +5°C° 0.1 mm 2 mps 682 mmHg 76%
    09:00 +5°C° 0.1 mm 3 mps 682 mmHg 70%
    10:00 +7°C° 0.1 mm 3 mps 682 mmHg 68%
    11:00 +8°C° 0.1 mm 3 mps 682 mmHg 66%
    12:00 +7°C° 0.1 mm 4 mps 682 mmHg 64%
    13:00 +8°C° 0.1 mm 4 mps 681 mmHg 65%
    14:00 +8°C° 0.1 mm 4 mps 681 mmHg 66%
    15:00 +8°C° 0.1 mm 4 mps 681 mmHg 67%
    16:00 +6°C° 0.2 mm 4 mps 681 mmHg 72%
    17:00 +5°C° 0.2 mm 3 mps 680 mmHg 77%
    18:00 +4°C° 0.2 mm 3 mps 680 mmHg 83%
    19:00 +4°C° 0.3 mm 3 mps 681 mmHg 86%
    20:00 +4°C° 0.3 mm 2 mps 681 mmHg 89%
    21:00 +4°C° 0.3 mm 2 mps 682 mmHg 92%
    22:00 +3°C° 0.5 mm 2 mps 682 mmHg 93%
    23:00 +3°C° 0.5 mm 2 mps 682 mmHg 93%

    Tomorrow, 22 April, Monday

    Time Temperature Precipitation Wind Pressure Humidity
    00:00 +2°C° 0.5 mm 2 mps 682 mmHg 94%
    01:00 +2°C° 0 mm 2 mps 682 mmHg 93%
    02:00 +2°C° 0 mm 2 mps 682 mmHg 93%
    03:00 +1°C° 0 mm 2 mps 681 mmHg 92%
    04:00 +1°C° 0 mm 2 mps 682 mmHg 90%
    05:00 +2°C° 0 mm 2 mps 682 mmHg 89%
    06:00 +2°C° 0 mm 2 mps 682 mmHg 87%
    07:00 +3°C° 0.1 mm 2 mps 682 mmHg 83%
    08:00 +3°C° 0.1 mm 3 mps 682 mmHg 80%
    09:00 +4°C° 0.1 mm 3 mps 682 mmHg 77%
    10:00 +4°C° 0.1 mm 3 mps 681 mmHg 76%
    11:00 +4°C° 0.1 mm 3 mps 681 mmHg 76%
    12:00 +5°C° 0.1 mm 4 mps 681 mmHg 75%
    13:00 +5°C° 0.2 mm 4 mps 681 mmHg 75%
    14:00 +5°C° 0.2 mm 4 mps 681 mmHg 75%
    15:00 +4°C° 0.2 mm 4 mps 681 mmHg 76%
    16:00 +4°C° 0.4 mm 3 mps 681 mmHg 79%
    17:00 +4°C° 0.4 mm 2 mps 681 mmHg 82%
    18:00 +3°C° 0.4 mm 2 mps 682 mmHg 85%
    19:00 +3°C° 0.4 mm 2 mps 682 mmHg 87%
    20:00 +2°C° 0.4 mm 2 mps 683 mmHg 88%
    21:00 +3°C° 0.4 mm 1 mps 683 mmHg 89%
    22:00 +3°C° 0.3 mm 1 mps 684 mmHg 90%
    23:00 +3°C° 0.3 mm 1 mps 684 mmHg 90%

    Day after tomorrow, 23 April, Tuesday

    Time Temperature Precipitation Wind Pressure Humidity
    00:00 +2°C° 0.3 mm 1 mps 684 mmHg 90%
    01:00 +2°C° 0.2 mm 1 mps 685 mmHg 90%
    02:00 +2°C° 0.2 mm 1 mps 685 mmHg 90%
    03:00 +2°C° 0.2 mm 1 mps 685 mmHg 90%
    04:00 +2°C° 0.1 mm 1 mps 685 mmHg 88%
    05:00 +1°C° 0.1 mm 0 mps 686 mmHg 85%
    06:00 +2°C° 0.1 mm 0 mps 686 mmHg 82%
    07:00 +4°C° 0.2 mm 1 mps 687 mmHg 78%
    08:00 +5°C° 0.2 mm 1 mps 687 mmHg 74%
    09:00 +6°C° 0.2 mm 1 mps 688 mmHg 70%
    10:00 +6°C° 0.2 mm 2 mps 688 mmHg 68%
    11:00 +7°C° 0.2 mm 2 mps 688 mmHg 67%
    12:00 +7°C° 0.2 mm 3 mps 688 mmHg 66%
    13:00 +8°C° 0.2 mm 2 mps 688 mmHg 65%
    14:00 +8°C° 0.2 mm 2 mps 687 mmHg 63%
    15:00 +8°C° 0.2 mm 2 mps 687 mmHg 62%
    16:00 +8°C° 0.2 mm 2 mps 687 mmHg 64%
    17:00 +7°C° 0.2 mm 2 mps 687 mmHg 67%
    18:00 +8°C° 0.2 mm 1 mps 687 mmHg 69%
    19:00 +7°C° 0.1 mm 1 mps 687 mmHg 71%
    20:00 +6°C° 0.1 mm 1 mps 688 mmHg 74%
    21:00 +5°C° 0.1 mm 1 mps 688 mmHg 77%
    22:00 +5°C° 0.1 mm 1 mps 688 mmHg 77%
    23:00 +4°C° 0.1 mm 1 mps 688 mmHg 76%

    24 April, Wednesday

    Time Temperature Precipitation Wind Pressure Humidity
    00:00 +4°C° 0.1 mm 1 mps 688 mmHg 76%
    01:00 +4°C° 0.1 mm 1 mps 689 mmHg 76%
    02:00 +4°C° 0.1 mm 1 mps 689 mmHg 75%
    03:00 +4°C° 0.1 mm 1 mps 689 mmHg 75%
    04:00 +5°C° 0.1 mm 1 mps 689 mmHg 73%
    05:00 +5°C° 0.1 mm 1 mps 689 mmHg 72%
    06:00 +5°C° 0.1 mm 1 mps 690 mmHg 71%
    07:00 +7°C° 0.1 mm 1 mps 690 mmHg 67%
    08:00 +8°C° 0.1 mm 1 mps 690 mmHg 63%
    09:00 +8°C° 0.1 mm 2 mps 691 mmHg 59%
    10:00 +9°C° 0.1 mm 2 mps 690 mmHg 57%
    11:00 +10°C° 0.1 mm 2 mps 690 mmHg 56%
    12:00 +12°C° 0.1 mm 2 mps 689 mmHg 54%
    13:00 +12°C° 0.1 mm 2 mps 689 mmHg 54%
    14:00 +12°C° 0.1 mm 2 mps 688 mmHg 53%
    15:00 +12°C° 0.1 mm 2 mps 688 mmHg 52%
    16:00 +10°C° 0.1 mm 2 mps 688 mmHg 55%
    17:00 +10°C° 0.1 mm 2 mps 687 mmHg 59%
    18:00 +10°C° 0.1 mm 1 mps 687 mmHg 62%
    19:00 +9°C° 0 mm 1 mps 687 mmHg 66%
    20:00 +7°C° 0 mm 1 mps 687 mmHg 70%
    21:00 +5°C° 0 mm 0 mps 688 mmHg 74%
    22:00 +6°C° 0.1 mm 1 mps 688 mmHg 75%
    23:00 +6°C° 0.1 mm 1 mps 688 mmHg 75%

    25 April, Thursday

    Time Temperature Precipitation Wind Pressure Humidity
    00:00 +7°C° 0.1 mm 1 mps 688 mmHg 76%
    01:00 +6°C° 0.2 mm 1 mps 688 mmHg 76%
    02:00 +6°C° 0.2 mm 1 mps 688 mmHg 76%
    03:00 +6°C° 0.2 mm 1 mps 688 mmHg 77%
    04:00 +6°C° 0.1 mm 1 mps 688 mmHg 75%
    05:00 +7°C° 0.1 mm 1 mps 689 mmHg 74%
    06:00 +7°C° 0.1 mm 1 mps 689 mmHg 73%
    07:00 +8°C° 0 mm 1 mps 689 mmHg 67%
    08:00 +10°C° 0 mm 1 mps 690 mmHg 61%
    09:00 +11°C° 0 mm 1 mps 690 mmHg 56%
    10:00 +12°C° 0 mm 2 mps 690 mmHg 54%
    11:00 +13°C° 0 mm 2 mps 690 mmHg 52%
    12:00 +13°C° 0 mm 3 mps 690 mmHg 51%
    13:00 +13°C° 0.1 mm 3 mps 689 mmHg 51%
    14:00 +13°C° 0.1 mm 3 mps 689 mmHg 50%
    15:00 +13°C° 0.1 mm 3 mps 689 mmHg 50%
    16:00 +12°C° 0.1 mm 3 mps 689 mmHg 54%
    17:00 +12°C° 0.1 mm 2 mps 689 mmHg 58%
    18:00 +10°C° 0.1 mm 2 mps 689 mmHg 62%
    19:00 +10°C° 0.1 mm 1 mps 689 mmHg 66%
    20:00 +9°C° 0.1 mm 1 mps 689 mmHg 70%
    21:00 +8°C° 0.1 mm 1 mps 690 mmHg 75%
    22:00 +8°C° 0.1 mm 1 mps 689 mmHg 75%
    23:00 +7°C° 0.1 mm 1 mps 689 mmHg 76%

    26 April, Friday

    Time Temperature Precipitation Wind Pressure Humidity
    00:00 +7°C° 0.1 mm 1 mps 689 mmHg 76%
    01:00 +7°C° 0.1 mm 1 mps 689 mmHg 76%
    02:00 +6°C° 0.1 mm 1 mps 689 mmHg 75%
    03:00 +6°C° 0.1 mm 1 mps 689 mmHg 75%
    04:00 +6°C° 0 mm 1 mps 689 mmHg 73%
    05:00 +7°C° 0 mm 1 mps 689 mmHg 71%
    06:00 +7°C° 0 mm 1 mps 690 mmHg 69%
    07:00 +9°C° 0 mm 1 mps 690 mmHg 63%
    08:00 +11°C° 0 mm 1 mps 690 mmHg 58%
    09:00 +13°C° 0 mm 1 mps 690 mmHg 52%
    10:00 +13°C° 0 mm 2 mps 690 mmHg 51%
    11:00 +14°C° 0 mm 2 mps 690 mmHg 49%
    12:00 +15°C° 0 mm 2 mps 690 mmHg 48%
    13:00 +14°C° 0 mm 3 mps 689 mmHg 47%
    14:00 +14°C° 0 mm 3 mps 689 mmHg 47%
    15:00 +14°C° 0 mm 3 mps 689 mmHg 47%
    16:00 +13°C° 0 mm 3 mps 688 mmHg 52%
    17:00 +13°C° 0 mm 2 mps 688 mmHg 56%
    18:00 +12°C° 0 mm 2 mps 688 mmHg 60%
    19:00 +10°C° 0 mm 2 mps 688 mmHg 65%
    20:00 +9°C° 0 mm 1 mps 688 mmHg 70%
    21:00 +8°C° 0 mm 1 mps 688 mmHg 75%
    22:00 +7°C° 0 mm 1 mps 688 mmHg 75%
    23:00 +7°C° 0 mm 1 mps 688 mmHg 74%
    Show more